User: anonymous   Login
Location: Unspecified
(0.0000°N, 0.0000°E)
Time: 00:23:45
(UTC+00:00)
Language:

RISAT 1 - Orbit

View from above orbital plane
View from above orbital plane
View from above satellite
View from above satellite

Ground track
Ground track

The orbit data is extracted from the following two-line orbital elements,

1 38248U 12017A   17080.83568378 +.00000735 +00000-0 +50545-4 0  9998
2 38248 097.5752 089.6175 0004238 004.5140 118.8002 15.08970161270062
Epoch (UTC): 21 March 2017 20:03:23
Eccentricity: 0.0004238
inclination: 97.5752°
perigee height: 536 km
apogee height: 542 km
right ascension of ascending node: 89.6175°
argument of perigee: 4.5140°
revolutions per day: 15.08970161
mean anomaly at epoch: 118.8002°
orbit number at epoch: 27006

The dashed part of the orbit path shows where the satellite is in the earth's shadow,  

DLR